owner,sensor,date,latitude,longitude,vertical_datum,sea_water_practical_salinity,qcFlag 
WAVCIS,ioos:station:WAVCIS:CSI16:1,2011-04-01T00:00:00Z,29.4012,-89.0355,1.0,27.739,11111222 
WAVCIS,ioos:station:WAVCIS:CSI16:1,2011-04-01T00:15:00Z,29.4012,-89.0355,1.0,27.728,11111222 
WAVCIS,ioos:station:WAVCIS:CSI16:1,2011-04-01T00:30:00Z,29.4012,-89.0355,1.0,27.677,11111222 
WAVCIS,ioos:station:WAVCIS:CSI16:1,2011-04-01T00:45:00Z,29.4012,-89.0355,1.0,27.68,11111222 
WAVCIS,ioos:station:WAVCIS:CSI16:1,2011-04-01T01:00:00Z,29.4012,-89.0355,1.0,27.674,11111222 
WAVCIS,ioos:station:WAVCIS:CSI16:1,2011-04-01T01:15:00Z,29.4012,-89.0355,1.0,27.667,11111222 
WAVCIS,ioos:station:WAVCIS:CSI16:1,2011-04-01T01:30:00Z,29.4012,-89.0355,1.0,27.632,11111222 
WAVCIS,ioos:station:WAVCIS:CSI16:1,2011-04-01T01:45:00Z,29.4012,-89.0355,1.0,27.66,11111222 
WAVCIS,ioos:station:WAVCIS:CSI16:1,2011-04-01T02:00:00Z,29.4012,-89.0355,1.0,27.678,11111222 
WAVCIS,ioos:station:WAVCIS:CSI16:1,2011-04-01T02:15:00Z,29.4012,-89.0355,1.0,27.705,11111222 
WAVCIS,ioos:station:WAVCIS:CSI16:1,2011-04-01T02:30:00Z,29.4012,-89.0355,1.0,27.583,11111222 
WAVCIS,ioos:station:WAVCIS:CSI16:1,2011-04-01T02:45:00Z,29.4012,-89.0355,1.0,27.607,11111222 
WAVCIS,ioos:station:WAVCIS:CSI16:1,2011-04-01T03:00:00Z,29.4012,-89.0355,1.0,27.553,11111222 
WAVCIS,ioos:station:WAVCIS:CSI16:1,2011-04-01T03:15:00Z,29.4012,-89.0355,1.0,27.522,11111222 
WAVCIS,ioos:station:WAVCIS:CSI16:1,2011-04-01T03:30:00Z,29.4012,-89.0355,1.0,27.532,11111222 
WAVCIS,ioos:station:WAVCIS:CSI16:1,2011-04-01T03:45:00Z,29.4012,-89.0355,1.0,27.486,11111222 
WAVCIS,ioos:station:WAVCIS:CSI16:1,2011-04-01T04:00:00Z,29.4012,-89.0355,1.0,27.415,11111222 
WAVCIS,ioos:station:WAVCIS:CSI16:1,2011-04-01T04:15:00Z,29.4012,-89.0355,1.0,27.54,11111222 
WAVCIS,ioos:station:WAVCIS:CSI16:1,2011-04-01T04:30:00Z,29.4012,-89.0355,1.0,27.622,11111222 
WAVCIS,ioos:station:WAVCIS:CSI16:1,2011-04-01T04:45:00Z,29.4012,-89.0355,1.0,27.728,11111222 
WAVCIS,ioos:station:WAVCIS:CSI16:1,2011-04-01T05:00:00Z,29.4012,-89.0355,1.0,27.836,11111222 
WAVCIS,ioos:station:WAVCIS:CSI16:1,2011-04-01T05:15:00Z,29.4012,-89.0355,1.0,27.802,11111222 
WAVCIS,ioos:station:WAVCIS:CSI16:1,2011-04-01T05:30:00Z,29.4012,-89.0355,1.0,27.769,11111222 
WAVCIS,ioos:station:WAVCIS:CSI16:1,2011-04-01T05:45:00Z,29.4012,-89.0355,1.0,27.558,11111222 
WAVCIS,ioos:station:WAVCIS:CSI16:1,2011-04-01T06:00:00Z,29.4012,-89.0355,1.0,27.399,11111222 
WAVCIS,ioos:station:WAVCIS:CSI16:1,2011-04-01T06:15:00Z,29.4012,-89.0355,1.0,27.356,11111222 
WAVCIS,ioos:station:WAVCIS:CSI16:1,2011-04-01T06:30:00Z,29.4012,-89.0355,1.0,27.326,11111222 
WAVCIS,ioos:station:WAVCIS:CSI16:1,2011-04-01T06:45:00Z,29.4012,-89.0355,1.0,27.419,11111222 
WAVCIS,ioos:station:WAVCIS:CSI16:1,2011-04-01T07:00:00Z,29.4012,-89.0355,1.0,27.294,11111222 
WAVCIS,ioos:station:WAVCIS:CSI16:1,2011-04-01T07:15:00Z,29.4012,-89.0355,1.0,27.383,11111222 
WAVCIS,ioos:station:WAVCIS:CSI16:1,2011-04-01T07:30:00Z,29.4012,-89.0355,1.0,27.207,11111222 
WAVCIS,ioos:station:WAVCIS:CSI16:1,2011-04-01T07:45:00Z,29.4012,-89.0355,1.0,27.09,11111222 
WAVCIS,ioos:station:WAVCIS:CSI16:1,2011-04-01T08:00:00Z,29.4012,-89.0355,1.0,27.147,11111222 
WAVCIS,ioos:station:WAVCIS:CSI16:1,2011-04-01T08:15:00Z,29.4012,-89.0355,1.0,27.07,11111222 
WAVCIS,ioos:station:WAVCIS:CSI16:1,2011-04-01T08:30:00Z,29.4012,-89.0355,1.0,27.133,11111222 
WAVCIS,ioos:station:WAVCIS:CSI16:1,2011-04-01T08:45:00Z,29.4012,-89.0355,1.0,26.623,11111222 
WAVCIS,ioos:station:WAVCIS:CSI16:1,2011-04-01T09:00:00Z,29.4012,-89.0355,1.0,26.453,11111222 
WAVCIS,ioos:station:WAVCIS:CSI16:1,2011-04-01T09:15:00Z,29.4012,-89.0355,1.0,26.079,11111222 
WAVCIS,ioos:station:WAVCIS:CSI16:1,2011-04-01T09:30:00Z,29.4012,-89.0355,1.0,25.963,11111222 
WAVCIS,ioos:station:WAVCIS:CSI16:1,2011-04-01T09:45:00Z,29.4012,-89.0355,1.0,25.875,11111222 
WAVCIS,ioos:station:WAVCIS:CSI16:1,2011-04-01T10:00:00Z,29.4012,-89.0355,1.0,24.368,11111222 
WAVCIS,ioos:station:WAVCIS:CSI16:1,2011-04-01T10:15:00Z,29.4012,-89.0355,1.0,24.32,11111222 
WAVCIS,ioos:station:WAVCIS:CSI16:1,2011-04-01T10:30:00Z,29.4012,-89.0355,1.0,24.418,11111222 
WAVCIS,ioos:station:WAVCIS:CSI16:1,2011-04-01T10:45:00Z,29.4012,-89.0355,1.0,24.596,11111222 
WAVCIS,ioos:station:WAVCIS:CSI16:1,2011-04-01T11:00:00Z,29.4012,-89.0355,1.0,25.023,11111222 
WAVCIS,ioos:station:WAVCIS:CSI16:1,2011-04-01T11:15:00Z,29.4012,-89.0355,1.0,25.324,11111222 
WAVCIS,ioos:station:WAVCIS:CSI16:1,2011-04-01T11:30:00Z,29.4012,-89.0355,1.0,25.14,11111222 
WAVCIS,ioos:station:WAVCIS:CSI16:1,2011-04-01T11:45:00Z,29.4012,-89.0355,1.0,24.929,11111222 
WAVCIS,ioos:station:WAVCIS:CSI16:1,2011-04-01T12:00:00Z,29.4012,-89.0355,1.0,24.247,11111222 
WAVCIS,ioos:station:WAVCIS:CSI16:1,2011-04-01T12:15:00Z,29.4012,-89.0355,1.0,16.734,11111222 
WAVCIS,ioos:station:WAVCIS:CSI16:1,2011-04-01T12:30:00Z,29.4012,-89.0355,1.0,19.141,11111222 
WAVCIS,ioos:station:WAVCIS:CSI16:1,2011-04-01T12:45:00Z,29.4012,-89.0355,1.0,18.846,11111222 
WAVCIS,ioos:station:WAVCIS:CSI16:1,2011-04-01T13:00:00Z,29.4012,-89.0355,1.0,19.052,11111222 
WAVCIS,ioos:station:WAVCIS:CSI16:1,2011-04-01T13:15:00Z,29.4012,-89.0355,1.0,19.205,11111222 
WAVCIS,ioos:station:WAVCIS:CSI16:1,2011-04-01T13:30:00Z,29.4012,-89.0355,1.0,18.192,11111222 
WAVCIS,ioos:station:WAVCIS:CSI16:1,2011-04-01T13:45:00Z,29.4012,-89.0355,1.0,18.361,11111222 
WAVCIS,ioos:station:WAVCIS:CSI16:1,2011-04-01T14:00:00Z,29.4012,-89.0355,1.0,18.074,11111222 
WAVCIS,ioos:station:WAVCIS:CSI16:1,2011-04-01T14:15:00Z,29.4012,-89.0355,1.0,17.973,11111222 
WAVCIS,ioos:station:WAVCIS:CSI16:1,2011-04-01T14:30:00Z,29.4012,-89.0355,1.0,17.906,11111222 
WAVCIS,ioos:station:WAVCIS:CSI16:1,2011-04-01T14:45:00Z,29.4012,-89.0355,1.0,18.008,11111222 
WAVCIS,ioos:station:WAVCIS:CSI16:1,2011-04-01T15:00:00Z,29.4012,-89.0355,1.0,18.096,11111222 
WAVCIS,ioos:station:WAVCIS:CSI16:1,2011-04-01T15:15:00Z,29.4012,-89.0355,1.0,18.053,11111222 
WAVCIS,ioos:station:WAVCIS:CSI16:1,2011-04-01T15:30:00Z,29.4012,-89.0355,1.0,17.982,11111222 
WAVCIS,ioos:station:WAVCIS:CSI16:1,2011-04-01T15:45:00Z,29.4012,-89.0355,1.0,23.734,11111222 
WAVCIS,ioos:station:WAVCIS:CSI16:1,2011-04-01T16:00:00Z,29.4012,-89.0355,1.0,25.796,11111222 
WAVCIS,ioos:station:WAVCIS:CSI16:1,2011-04-01T16:15:00Z,29.4012,-89.0355,1.0,27.064,11111222 
WAVCIS,ioos:station:WAVCIS:CSI16:1,2011-04-01T16:30:00Z,29.4012,-89.0355,1.0,27.138,11111222 
WAVCIS,ioos:station:WAVCIS:CSI16:1,2011-04-01T16:45:00Z,29.4012,-89.0355,1.0,19.185,11111222 
WAVCIS,ioos:station:WAVCIS:CSI16:1,2011-04-01T17:00:00Z,29.4012,-89.0355,1.0,19.349,11111222 
WAVCIS,ioos:station:WAVCIS:CSI16:1,2011-04-01T17:15:00Z,29.4012,-89.0355,1.0,19.39,11111222 
WAVCIS,ioos:station:WAVCIS:CSI16:1,2011-04-01T17:30:00Z,29.4012,-89.0355,1.0,23.213,11111222 
WAVCIS,ioos:station:WAVCIS:CSI16:1,2011-04-01T17:45:00Z,29.4012,-89.0355,1.0,24.003,11111222 
WAVCIS,ioos:station:WAVCIS:CSI16:1,2011-04-01T18:00:00Z,29.4012,-89.0355,1.0,24.473,11111222 
WAVCIS,ioos:station:WAVCIS:CSI16:1,2011-04-01T18:15:00Z,29.4012,-89.0355,1.0,25.001,11111222 
WAVCIS,ioos:station:WAVCIS:CSI16:1,2011-04-01T18:30:00Z,29.4012,-89.0355,1.0,24.962,11111222 
WAVCIS,ioos:station:WAVCIS:CSI16:1,2011-04-01T18:45:00Z,29.4012,-89.0355,1.0,23.814,11111222 
WAVCIS,ioos:station:WAVCIS:CSI16:1,2011-04-01T19:00:00Z,29.4012,-89.0355,1.0,22.743,11111222 
WAVCIS,ioos:station:WAVCIS:CSI16:1,2011-04-01T19:15:00Z,29.4012,-89.0355,1.0,20.614,11111222 
WAVCIS,ioos:station:WAVCIS:CSI16:1,2011-04-01T19:30:00Z,29.4012,-89.0355,1.0,18.161,11111222 
WAVCIS,ioos:station:WAVCIS:CSI16:1,2011-04-01T19:45:00Z,29.4012,-89.0355,1.0,16.399,11111222 
WAVCIS,ioos:station:WAVCIS:CSI16:1,2011-04-01T20:00:00Z,29.4012,-89.0355,1.0,15.475,11111222 
WAVCIS,ioos:station:WAVCIS:CSI16:1,2011-04-01T20:15:00Z,29.4012,-89.0355,1.0,14.773,11111222 
WAVCIS,ioos:station:WAVCIS:CSI16:1,2011-04-01T20:30:00Z,29.4012,-89.0355,1.0,14.382,11111222 
WAVCIS,ioos:station:WAVCIS:CSI16:1,2011-04-01T20:45:00Z,29.4012,-89.0355,1.0,14.643,11111222 
WAVCIS,ioos:station:WAVCIS:CSI16:1,2011-04-01T21:00:00Z,29.4012,-89.0355,1.0,12.44,11111222 
WAVCIS,ioos:station:WAVCIS:CSI16:1,2011-04-01T21:15:00Z,29.4012,-89.0355,1.0,14.239,11111222 
WAVCIS,ioos:station:WAVCIS:CSI16:1,2011-04-01T21:30:00Z,29.4012,-89.0355,1.0,13.578,11111222 
WAVCIS,ioos:station:WAVCIS:CSI16:1,2011-04-01T21:45:00Z,29.4012,-89.0355,1.0,13.295,11111222 
WAVCIS,ioos:station:WAVCIS:CSI16:1,2011-04-01T22:00:00Z,29.4012,-89.0355,1.0,12.658,11111222 
WAVCIS,ioos:station:WAVCIS:CSI16:1,2011-04-01T22:15:00Z,29.4012,-89.0355,1.0,12.598,11111222 
WAVCIS,ioos:station:WAVCIS:CSI16:1,2011-04-01T22:30:00Z,29.4012,-89.0355,1.0,11.98,11111222 
WAVCIS,ioos:station:WAVCIS:CSI16:1,2011-04-01T22:45:00Z,29.4012,-89.0355,1.0,15.234,11111222 
WAVCIS,ioos:station:WAVCIS:CSI16:1,2011-04-01T23:00:00Z,29.4012,-89.0355,1.0,15.367,11111222 
WAVCIS,ioos:station:WAVCIS:CSI16:1,2011-04-01T23:15:00Z,29.4012,-89.0355,1.0,18.929,11111222 
WAVCIS,ioos:station:WAVCIS:CSI16:1,2011-04-01T23:30:00Z,29.4012,-89.0355,1.0,22.593,11111222 
WAVCIS,ioos:station:WAVCIS:CSI16:1,2011-04-01T23:45:00Z,29.4012,-89.0355,1.0,23.177,11111222 
WAVCIS,ioos:station:WAVCIS:CSI16:1,2011-04-02T00:00:00Z,29.4012,-89.0355,1.0,24.888,11111222 
WAVCIS,ioos:station:WAVCIS:CSI16:1,2011-04-02T00:15:00Z,29.4012,-89.0355,1.0,26.545,11111222 
WAVCIS,ioos:station:WAVCIS:CSI16:1,2011-04-02T00:30:00Z,29.4012,-89.0355,1.0,26.917,11111222 
WAVCIS,ioos:station:WAVCIS:CSI16:1,2011-04-02T00:45:00Z,29.4012,-89.0355,1.0,27.473,11111222 
WAVCIS,ioos:station:WAVCIS:CSI16:1,2011-04-02T01:00:00Z,29.4012,-89.0355,1.0,27.826,11111222 
WAVCIS,ioos:station:WAVCIS:CSI16:1,2011-04-02T01:15:00Z,29.4012,-89.0355,1.0,27.901,11111222 
WAVCIS,ioos:station:WAVCIS:CSI16:1,2011-04-02T01:30:00Z,29.4012,-89.0355,1.0,27.944,11111222 
WAVCIS,ioos:station:WAVCIS:CSI16:1,2011-04-02T01:45:00Z,29.4012,-89.0355,1.0,21.566,11111222 
WAVCIS,ioos:station:WAVCIS:CSI16:1,2011-04-02T02:00:00Z,29.4012,-89.0355,1.0,27.604,11111222 
WAVCIS,ioos:station:WAVCIS:CSI16:1,2011-04-02T02:15:00Z,29.4012,-89.0355,1.0,27.144,11111222 
WAVCIS,ioos:station:WAVCIS:CSI16:1,2011-04-02T02:30:00Z,29.4012,-89.0355,1.0,27.477,11111222 
WAVCIS,ioos:station:WAVCIS:CSI16:1,2011-04-02T02:45:00Z,29.4012,-89.0355,1.0,27.745,11111222 
WAVCIS,ioos:station:WAVCIS:CSI16:1,2011-04-02T03:00:00Z,29.4012,-89.0355,1.0,27.428,11111222 
WAVCIS,ioos:station:WAVCIS:CSI16:1,2011-04-02T03:15:00Z,29.4012,-89.0355,1.0,27.444,11111222 
WAVCIS,ioos:station:WAVCIS:CSI16:1,2011-04-02T03:30:00Z,29.4012,-89.0355,1.0,27.614,11111222 
WAVCIS,ioos:station:WAVCIS:CSI16:1,2011-04-02T03:45:00Z,29.4012,-89.0355,1.0,27.73,11111222 
WAVCIS,ioos:station:WAVCIS:CSI16:1,2011-04-02T04:00:00Z,29.4012,-89.0355,1.0,27.81,11111222 
WAVCIS,ioos:station:WAVCIS:CSI16:1,2011-04-02T04:15:00Z,29.4012,-89.0355,1.0,27.838,11111222 
WAVCIS,ioos:station:WAVCIS:CSI16:1,2011-04-02T04:30:00Z,29.4012,-89.0355,1.0,27.995,11111222 
WAVCIS,ioos:station:WAVCIS:CSI16:1,2011-04-02T04:45:00Z,29.4012,-89.0355,1.0,28.122,11111222 
WAVCIS,ioos:station:WAVCIS:CSI16:1,2011-04-02T05:00:00Z,29.4012,-89.0355,1.0,28.26,11111222 
WAVCIS,ioos:station:WAVCIS:CSI16:1,2011-04-02T05:15:00Z,29.4012,-89.0355,1.0,28.527,11111222 
WAVCIS,ioos:station:WAVCIS:CSI16:1,2011-04-02T05:30:00Z,29.4012,-89.0355,1.0,28.682,11111222 
WAVCIS,ioos:station:WAVCIS:CSI16:1,2011-04-02T05:45:00Z,29.4012,-89.0355,1.0,28.754,11111222 
WAVCIS,ioos:station:WAVCIS:CSI16:1,2011-04-02T06:00:00Z,29.4012,-89.0355,1.0,28.735,11111222 
WAVCIS,ioos:station:WAVCIS:CSI16:1,2011-04-02T06:15:00Z,29.4012,-89.0355,1.0,28.767,11111222 
WAVCIS,ioos:station:WAVCIS:CSI16:1,2011-04-02T06:30:00Z,29.4012,-89.0355,1.0,28.783,11111222 
WAVCIS,ioos:station:WAVCIS:CSI16:1,2011-04-02T06:45:00Z,29.4012,-89.0355,1.0,28.833,11111222 
WAVCIS,ioos:station:WAVCIS:CSI16:1,2011-04-02T07:00:00Z,29.4012,-89.0355,1.0,28.921,11111222 
WAVCIS,ioos:station:WAVCIS:CSI16:1,2011-04-02T07:15:00Z,29.4012,-89.0355,1.0,28.773,11111222 
WAVCIS,ioos:station:WAVCIS:CSI16:1,2011-04-02T07:30:00Z,29.4012,-89.0355,1.0,28.918,11111222 
WAVCIS,ioos:station:WAVCIS:CSI16:1,2011-04-02T07:45:00Z,29.4012,-89.0355,1.0,28.978,11111222 
WAVCIS,ioos:station:WAVCIS:CSI16:1,2011-04-02T08:00:00Z,29.4012,-89.0355,1.0,28.97,11111222 
WAVCIS,ioos:station:WAVCIS:CSI16:1,2011-04-02T08:15:00Z,29.4012,-89.0355,1.0,29.058,11111222 
WAVCIS,ioos:station:WAVCIS:CSI16:1,2011-04-02T08:30:00Z,29.4012,-89.0355,1.0,29.226,11111222 
WAVCIS,ioos:station:WAVCIS:CSI16:1,2011-04-02T08:45:00Z,29.4012,-89.0355,1.0,29.231,11111222 
WAVCIS,ioos:station:WAVCIS:CSI16:1,2011-04-02T09:00:00Z,29.4012,-89.0355,1.0,29.201,11111222 
WAVCIS,ioos:station:WAVCIS:CSI16:1,2011-04-02T09:15:00Z,29.4012,-89.0355,1.0,29.178,11111222 
WAVCIS,ioos:station:WAVCIS:CSI16:1,2011-04-02T09:30:00Z,29.4012,-89.0355,1.0,29.134,11111222 
WAVCIS,ioos:station:WAVCIS:CSI16:1,2011-04-02T09:45:00Z,29.4012,-89.0355,1.0,28.69,11111222 
WAVCIS,ioos:station:WAVCIS:CSI16:1,2011-04-02T10:00:00Z,29.4012,-89.0355,1.0,28.947,11111222 
WAVCIS,ioos:station:WAVCIS:CSI16:1,2011-04-02T10:15:00Z,29.4012,-89.0355,1.0,29.034,11111222 
WAVCIS,ioos:station:WAVCIS:CSI16:1,2011-04-02T10:30:00Z,29.4012,-89.0355,1.0,28.996,11111222 
WAVCIS,ioos:station:WAVCIS:CSI16:1,2011-04-02T10:45:00Z,29.4012,-89.0355,1.0,28.803,11111222 
WAVCIS,ioos:station:WAVCIS:CSI16:1,2011-04-02T11:00:00Z,29.4012,-89.0355,1.0,28.587,11111222 
WAVCIS,ioos:station:WAVCIS:CSI16:1,2011-04-02T11:15:00Z,29.4012,-89.0355,1.0,28.376,11111222 
WAVCIS,ioos:station:WAVCIS:CSI16:1,2011-04-02T11:30:00Z,29.4012,-89.0355,1.0,28.104,11111222 
WAVCIS,ioos:station:WAVCIS:CSI16:1,2011-04-02T11:45:00Z,29.4012,-89.0355,1.0,27.316,11111222 
WAVCIS,ioos:station:WAVCIS:CSI16:1,2011-04-02T12:00:00Z,29.4012,-89.0355,1.0,28.061,11111222 
WAVCIS,ioos:station:WAVCIS:CSI16:1,2011-04-02T12:15:00Z,29.4012,-89.0355,1.0,27.587,11111222 
WAVCIS,ioos:station:WAVCIS:CSI16:1,2011-04-02T12:30:00Z,29.4012,-89.0355,1.0,27.758,11111222 
WAVCIS,ioos:station:WAVCIS:CSI16:1,2011-04-02T12:45:00Z,29.4012,-89.0355,1.0,26.844,11111222 
WAVCIS,ioos:station:WAVCIS:CSI16:1,2011-04-02T13:00:00Z,29.4012,-89.0355,1.0,27.288,11111222 
WAVCIS,ioos:station:WAVCIS:CSI16:1,2011-04-02T13:15:00Z,29.4012,-89.0355,1.0,26.544,11111222 
WAVCIS,ioos:station:WAVCIS:CSI16:1,2011-04-02T13:30:00Z,29.4012,-89.0355,1.0,26.063,11111222 
WAVCIS,ioos:station:WAVCIS:CSI16:1,2011-04-02T13:45:00Z,29.4012,-89.0355,1.0,25.951,11111222 
WAVCIS,ioos:station:WAVCIS:CSI16:1,2011-04-02T14:00:00Z,29.4012,-89.0355,1.0,25.729,11111222 
WAVCIS,ioos:station:WAVCIS:CSI16:1,2011-04-02T14:15:00Z,29.4012,-89.0355,1.0,25.227,11111222 
WAVCIS,ioos:station:WAVCIS:CSI16:1,2011-04-02T14:30:00Z,29.4012,-89.0355,1.0,25.603,11111222 
WAVCIS,ioos:station:WAVCIS:CSI16:1,2011-04-02T14:45:00Z,29.4012,-89.0355,1.0,24.512,11111222 
WAVCIS,ioos:station:WAVCIS:CSI16:1,2011-04-02T15:00:00Z,29.4012,-89.0355,1.0,25.335,11111222 
WAVCIS,ioos:station:WAVCIS:CSI16:1,2011-04-02T15:15:00Z,29.4012,-89.0355,1.0,25.285,11111222 
WAVCIS,ioos:station:WAVCIS:CSI16:1,2011-04-02T15:30:00Z,29.4012,-89.0355,1.0,25.411,11111222 
WAVCIS,ioos:station:WAVCIS:CSI16:1,2011-04-02T15:45:00Z,29.4012,-89.0355,1.0,26.399,11111222 
WAVCIS,ioos:station:WAVCIS:CSI16:1,2011-04-02T16:00:00Z,29.4012,-89.0355,1.0,27.362,11111222 
WAVCIS,ioos:station:WAVCIS:CSI16:1,2011-04-02T16:15:00Z,29.4012,-89.0355,1.0,25.85,11111222 
WAVCIS,ioos:station:WAVCIS:CSI16:1,2011-04-02T16:30:00Z,29.4012,-89.0355,1.0,28.959,11111222 
WAVCIS,ioos:station:WAVCIS:CSI16:1,2011-04-02T16:45:00Z,29.4012,-89.0355,1.0,29.007,11111222 
WAVCIS,ioos:station:WAVCIS:CSI16:1,2011-04-02T17:00:00Z,29.4012,-89.0355,1.0,28.605,11111222 
WAVCIS,ioos:station:WAVCIS:CSI16:1,2011-04-02T17:15:00Z,29.4012,-89.0355,1.0,29.925,11111222 
WAVCIS,ioos:station:WAVCIS:CSI16:1,2011-04-02T17:30:00Z,29.4012,-89.0355,1.0,29.892,11111222 
WAVCIS,ioos:station:WAVCIS:CSI16:1,2011-04-02T17:45:00Z,29.4012,-89.0355,1.0,29.725,11111222 
WAVCIS,ioos:station:WAVCIS:CSI16:1,2011-04-02T18:00:00Z,29.4012,-89.0355,1.0,26.509,11111222 
WAVCIS,ioos:station:WAVCIS:CSI16:1,2011-04-02T18:15:00Z,29.4012,-89.0355,1.0,25.125,11111222 
WAVCIS,ioos:station:WAVCIS:CSI16:1,2011-04-02T18:30:00Z,29.4012,-89.0355,1.0,21.226,11111222 
WAVCIS,ioos:station:WAVCIS:CSI16:1,2011-04-02T18:45:00Z,29.4012,-89.0355,1.0,23.252,11111222 
WAVCIS,ioos:station:WAVCIS:CSI16:1,2011-04-02T19:00:00Z,29.4012,-89.0355,1.0,16.104,11111222 
WAVCIS,ioos:station:WAVCIS:CSI16:1,2011-04-02T19:15:00Z,29.4012,-89.0355,1.0,15.948,11111222 
WAVCIS,ioos:station:WAVCIS:CSI16:1,2011-04-02T19:30:00Z,29.4012,-89.0355,1.0,15.239,11111222 
WAVCIS,ioos:station:WAVCIS:CSI16:1,2011-04-02T19:45:00Z,29.4012,-89.0355,1.0,15.111,11111222 
WAVCIS,ioos:station:WAVCIS:CSI16:1,2011-04-02T20:00:00Z,29.4012,-89.0355,1.0,14.592,11111222 
WAVCIS,ioos:station:WAVCIS:CSI16:1,2011-04-02T20:15:00Z,29.4012,-89.0355,1.0,17.806,11111222 
WAVCIS,ioos:station:WAVCIS:CSI16:1,2011-04-02T20:30:00Z,29.4012,-89.0355,1.0,16.304,11111222 
WAVCIS,ioos:station:WAVCIS:CSI16:1,2011-04-02T20:45:00Z,29.4012,-89.0355,1.0,16.566,11111222 
WAVCIS,ioos:station:WAVCIS:CSI16:1,2011-04-02T21:00:00Z,29.4012,-89.0355,1.0,17.362,11111222 
WAVCIS,ioos:station:WAVCIS:CSI16:1,2011-04-02T21:15:00Z,29.4012,-89.0355,1.0,20.384,11111222 
WAVCIS,ioos:station:WAVCIS:CSI16:1,2011-04-02T21:30:00Z,29.4012,-89.0355,1.0,20.454,11111222 
WAVCIS,ioos:station:WAVCIS:CSI16:1,2011-04-02T21:45:00Z,29.4012,-89.0355,1.0,22.54,11111222 
WAVCIS,ioos:station:WAVCIS:CSI16:1,2011-04-02T22:00:00Z,29.4012,-89.0355,1.0,20.23,11111222 
WAVCIS,ioos:station:WAVCIS:CSI16:1,2011-04-02T22:15:00Z,29.4012,-89.0355,1.0,21.731,11111222 
WAVCIS,ioos:station:WAVCIS:CSI16:1,2011-04-02T22:30:00Z,29.4012,-89.0355,1.0,21.462,11111222 
WAVCIS,ioos:station:WAVCIS:CSI16:1,2011-04-02T22:45:00Z,29.4012,-89.0355,1.0,16.869,11111222 
WAVCIS,ioos:station:WAVCIS:CSI16:1,2011-04-02T23:00:00Z,29.4012,-89.0355,1.0,16.231,11111222 
WAVCIS,ioos:station:WAVCIS:CSI16:1,2011-04-02T23:15:00Z,29.4012,-89.0355,1.0,14.376,11111222 
WAVCIS,ioos:station:WAVCIS:CSI16:1,2011-04-02T23:30:00Z,29.4012,-89.0355,1.0,13.152,11111222 
WAVCIS,ioos:station:WAVCIS:CSI16:1,2011-04-02T23:45:00Z,29.4012,-89.0355,1.0,12.925,11111222 
WAVCIS,ioos:station:WAVCIS:CSI16:1,2011-04-03T00:00:00Z,29.4012,-89.0355,1.0,16.061,11111222 
WAVCIS,ioos:station:WAVCIS:CSI16:1,2011-04-03T00:15:00Z,29.4012,-89.0355,1.0,18.233,11111222 
WAVCIS,ioos:station:WAVCIS:CSI16:1,2011-04-03T00:30:00Z,29.4012,-89.0355,1.0,19.152,11111222 
WAVCIS,ioos:station:WAVCIS:CSI16:1,2011-04-03T00:45:00Z,29.4012,-89.0355,1.0,19.386,11111222 
WAVCIS,ioos:station:WAVCIS:CSI16:1,2011-04-03T01:00:00Z,29.4012,-89.0355,1.0,20.265,11111222 
WAVCIS,ioos:station:WAVCIS:CSI16:1,2011-04-03T01:15:00Z,29.4012,-89.0355,1.0,19.703,11111222 
WAVCIS,ioos:station:WAVCIS:CSI16:1,2011-04-03T01:30:00Z,29.4012,-89.0355,1.0,18.018,11111222 
WAVCIS,ioos:station:WAVCIS:CSI16:1,2011-04-03T01:45:00Z,29.4012,-89.0355,1.0,16.92,11111222 
WAVCIS,ioos:station:WAVCIS:CSI16:1,2011-04-03T02:00:00Z,29.4012,-89.0355,1.0,17.716,11111222 
WAVCIS,ioos:station:WAVCIS:CSI16:1,2011-04-03T02:15:00Z,29.4012,-89.0355,1.0,18.525,11111222 
WAVCIS,ioos:station:WAVCIS:CSI16:1,2011-04-03T02:30:00Z,29.4012,-89.0355,1.0,18.407,11111222 
WAVCIS,ioos:station:WAVCIS:CSI16:1,2011-04-03T02:45:00Z,29.4012,-89.0355,1.0,17.737,11111222 
WAVCIS,ioos:station:WAVCIS:CSI16:1,2011-04-03T03:00:00Z,29.4012,-89.0355,1.0,15.462,11111222 
WAVCIS,ioos:station:WAVCIS:CSI16:1,2011-04-03T03:15:00Z,29.4012,-89.0355,1.0,12.763,11111222 
WAVCIS,ioos:station:WAVCIS:CSI16:1,2011-04-03T03:30:00Z,29.4012,-89.0355,1.0,12.371,11111222 
WAVCIS,ioos:station:WAVCIS:CSI16:1,2011-04-03T03:45:00Z,29.4012,-89.0355,1.0,15.985,11111222 
WAVCIS,ioos:station:WAVCIS:CSI16:1,2011-04-03T04:00:00Z,29.4012,-89.0355,1.0,21.499,11111222 
WAVCIS,ioos:station:WAVCIS:CSI16:1,2011-04-03T04:15:00Z,29.4012,-89.0355,1.0,23.856,11111222 
WAVCIS,ioos:station:WAVCIS:CSI16:1,2011-04-03T04:30:00Z,29.4012,-89.0355,1.0,24.219,11111222 
WAVCIS,ioos:station:WAVCIS:CSI16:1,2011-04-03T04:45:00Z,29.4012,-89.0355,1.0,24.558,11111222 
WAVCIS,ioos:station:WAVCIS:CSI16:1,2011-04-03T05:00:00Z,29.4012,-89.0355,1.0,24.46,11111222 
WAVCIS,ioos:station:WAVCIS:CSI16:1,2011-04-03T05:15:00Z,29.4012,-89.0355,1.0,24.826,11111222 
WAVCIS,ioos:station:WAVCIS:CSI16:1,2011-04-03T05:30:00Z,29.4012,-89.0355,1.0,25.332,11111222 
WAVCIS,ioos:station:WAVCIS:CSI16:1,2011-04-03T05:45:00Z,29.4012,-89.0355,1.0,26.4,11111222 
WAVCIS,ioos:station:WAVCIS:CSI16:1,2011-04-03T06:00:00Z,29.4012,-89.0355,1.0,26.99,11111222 
WAVCIS,ioos:station:WAVCIS:CSI16:1,2011-04-03T06:15:00Z,29.4012,-89.0355,1.0,27.264,11111222 
WAVCIS,ioos:station:WAVCIS:CSI16:1,2011-04-03T06:30:00Z,29.4012,-89.0355,1.0,27.511,11111222 
WAVCIS,ioos:station:WAVCIS:CSI16:1,2011-04-03T06:45:00Z,29.4012,-89.0355,1.0,27.488,11111222 
WAVCIS,ioos:station:WAVCIS:CSI16:1,2011-04-03T07:00:00Z,29.4012,-89.0355,1.0,27.855,11111222 
WAVCIS,ioos:station:WAVCIS:CSI16:1,2011-04-03T07:15:00Z,29.4012,-89.0355,1.0,26.807,11111222 
WAVCIS,ioos:station:WAVCIS:CSI16:1,2011-04-03T07:30:00Z,29.4012,-89.0355,1.0,25.878,11111222 
WAVCIS,ioos:station:WAVCIS:CSI16:1,2011-04-03T07:45:00Z,29.4012,-89.0355,1.0,24.93,11111222 
WAVCIS,ioos:station:WAVCIS:CSI16:1,2011-04-03T08:00:00Z,29.4012,-89.0355,1.0,23.973,11111222 
WAVCIS,ioos:station:WAVCIS:CSI16:1,2011-04-03T08:15:00Z,29.4012,-89.0355,1.0,23.645,11111222 
WAVCIS,ioos:station:WAVCIS:CSI16:1,2011-04-03T08:30:00Z,29.4012,-89.0355,1.0,24.736,11111222 
WAVCIS,ioos:station:WAVCIS:CSI16:1,2011-04-03T08:45:00Z,29.4012,-89.0355,1.0,23.776,11111222 
WAVCIS,ioos:station:WAVCIS:CSI16:1,2011-04-03T09:00:00Z,29.4012,-89.0355,1.0,23.662,11111222 
WAVCIS,ioos:station:WAVCIS:CSI16:1,2011-04-03T09:15:00Z,29.4012,-89.0355,1.0,24.532,11111222 
WAVCIS,ioos:station:WAVCIS:CSI16:1,2011-04-03T09:30:00Z,29.4012,-89.0355,1.0,25.12,11111222 
WAVCIS,ioos:station:WAVCIS:CSI16:1,2011-04-03T09:45:00Z,29.4012,-89.0355,1.0,25.316,11111222 
WAVCIS,ioos:station:WAVCIS:CSI16:1,2011-04-03T10:00:00Z,29.4012,-89.0355,1.0,25.555,11111222 
WAVCIS,ioos:station:WAVCIS:CSI16:1,2011-04-03T10:15:00Z,29.4012,-89.0355,1.0,25.529,11111222 
WAVCIS,ioos:station:WAVCIS:CSI16:1,2011-04-03T10:30:00Z,29.4012,-89.0355,1.0,25.397,11111222 
WAVCIS,ioos:station:WAVCIS:CSI16:1,2011-04-03T10:45:00Z,29.4012,-89.0355,1.0,25.493,11111222 
WAVCIS,ioos:station:WAVCIS:CSI16:1,2011-04-03T11:00:00Z,29.4012,-89.0355,1.0,25.944,11111222 
WAVCIS,ioos:station:WAVCIS:CSI16:1,2011-04-03T11:15:00Z,29.4012,-89.0355,1.0,25.98,11111222 
WAVCIS,ioos:station:WAVCIS:CSI16:1,2011-04-03T11:30:00Z,29.4012,-89.0355,1.0,26.026,11111222 
WAVCIS,ioos:station:WAVCIS:CSI16:1,2011-04-03T11:45:00Z,29.4012,-89.0355,1.0,27.48,11111222 
WAVCIS,ioos:station:WAVCIS:CSI16:1,2011-04-03T12:00:00Z,29.4012,-89.0355,1.0,27.914,11111222 
WAVCIS,ioos:station:WAVCIS:CSI16:1,2011-04-03T12:15:00Z,29.4012,-89.0355,1.0,27.632,11111222 
WAVCIS,ioos:station:WAVCIS:CSI16:1,2011-04-03T12:30:00Z,29.4012,-89.0355,1.0,27.592,11111222 
WAVCIS,ioos:station:WAVCIS:CSI16:1,2011-04-03T12:45:00Z,29.4012,-89.0355,1.0,27.761,11111222 
WAVCIS,ioos:station:WAVCIS:CSI16:1,2011-04-03T13:00:00Z,29.4012,-89.0355,1.0,27.515,11111222 
WAVCIS,ioos:station:WAVCIS:CSI16:1,2011-04-03T13:15:00Z,29.4012,-89.0355,1.0,27.548,11111222 
WAVCIS,ioos:station:WAVCIS:CSI16:1,2011-04-03T13:30:00Z,29.4012,-89.0355,1.0,27.894,11111222 
WAVCIS,ioos:station:WAVCIS:CSI16:1,2011-04-03T13:45:00Z,29.4012,-89.0355,1.0,28.132,11111222 
WAVCIS,ioos:station:WAVCIS:CSI16:1,2011-04-03T14:00:00Z,29.4012,-89.0355,1.0,28.009,11111222 
WAVCIS,ioos:station:WAVCIS:CSI16:1,2011-04-03T14:15:00Z,29.4012,-89.0355,1.0,27.793,11111222 
WAVCIS,ioos:station:WAVCIS:CSI16:1,2011-04-03T14:30:00Z,29.4012,-89.0355,1.0,28.23,11111222 
WAVCIS,ioos:station:WAVCIS:CSI16:1,2011-04-03T14:45:00Z,29.4012,-89.0355,1.0,28.094,11111222 
WAVCIS,ioos:station:WAVCIS:CSI16:1,2011-04-03T15:00:00Z,29.4012,-89.0355,1.0,27.697,11111222 
WAVCIS,ioos:station:WAVCIS:CSI16:1,2011-04-03T15:15:00Z,29.4012,-89.0355,1.0,27.958,11111222 